GEFSNE_con_maxscp_318.txt.gz
SCP
3 3 2 2 3 3 4 5 4 2 2 2 2 2 3 3 3 3 4 3 2 1 1 0 0 0 1 1 1 1 1 1 1 1 1 1 1 1
3 3 3 4 4 4 5 5 4 3 3 2 2 2 3 3 3 4 4 4 3 2 1 1 1 0 0 1 1 1 1 1 1 1 1 1 2 2
4 4 4 5 5 5 5 5 5 4 4 3 3 3 3 3 4 5 6 6 5 3 2 1 1 1 0 0 0 0 0 1 1 1 1 1 1 2
4 4 5 5 5 5 5 5 5 5 5 4 4 4 4 5 6 8 8 8 7 5 3 2 2 1 1 0 0 0 0 0 1 1 1 1 1 1
4 4 4 4 5 5 5 5 6 6 6 5 5 5 5 5 7 10 11 10 9 7 5 3 2 2 1 0 0 0 0 0 0 0 0 0 0 0
4 5 5 4 5 5 5 6 6 6 6 6 6 6 6 6 8 10 11 11 11 9 8 6 4 3 2 1 0 0 0 0 0 0 0 0 0 0
5 5 5 5 5 5 5 6 5 5 5 6 6 7 7 8 8 9 9 9 10 10 10 9 8 6 4 2 1 0 0 0 0 0 0 0 0 0
5 5 5 5 5 5 5 5 5 4 4 5 6 7 8 8 8 7 7 6 6 7 7 8 9 9 8 6 3 1 0 0 0 0 0 0 0 0
5 5 4 4 5 5 6 6 5 4 4 5 5 6 7 7 8 8 7 6 5 5 5 6 8 10 11 9 5 2 0 0 0 0 0 0 0 0
6 5 5 4 5 5 7 7 7 6 5 4 4 5 5 6 7 7 7 7 6 5 6 6 8 9 9 9 6 2 0 0 0 0 0 0 0 0
6 6 6 5 5 6 7 8 9 8 6 4 4 5 5 5 5 6 7 7 7 6 7 9 9 9 8 8 7 3 0 0 0 0 0 0 0 0
8 8 7 6 5 5 6 8 9 9 7 6 5 5 6 5 5 6 7 7 7 7 9 11 11 10 9 8 6 3 1 0 0 0 0 0 0 0
8 9 9 7 5 4 5 6 7 7 7 7 6 6 6 7 7 7 8 9 9 9 11 13 11 9 7 6 4 3 2 1 1 0 0 0 0 0
8 9 8 6 4 3 3 4 4 5 6 6 6 6 7 8 8 9 10 11 11 10 10 10 9 7 5 4 3 3 2 2 1 1 1 1 0 0
6 6 6 5 3 2 2 2 2 4 5 6 6 7 7 8 9 11 11 12 11 9 8 113 183 111 3 3 3 3 2 2 2 2 1 1 1 1
3 4 4 3 3 3 3 2 3 4 5 5 6 7 7 7 9 11 12 11 8 6 5 182 360 182 4 3 3 3 2 2 2 2 2 2 1 1
3 4 4 3 3 4 4 4 4 4 5 6 7 7 6 7 8 11 11 9 7 5 4 110 182 111 4 3 3 2 2 2 2 2 2 2 1 1
3 4 5 4 4 4 4 5 5 5 6 8 9 8 7 7 8 10 10 9 7 5 4 3 4 4 4 3 2 2 2 2 2 3 3 2 1 1
2 3 4 4 5 5 5 5 5 6 6 7 8 8 8 8 8 8 8 8 7 5 4 3 3 3 3 2 2 2 2 2 3 3 3 3 2 2
2 3 4 5 6 6 6 5 5 5 6 7 8 8 8 8 6 5 5 5 5 5 4 3 3 3 3 2 2 3 2 2 3 3 3 3 2 2
2 3 4 5 6 7 6 4 4 5 7 8 9 9 8 6 4 2 2 3 3 3 3 3 3 3 3 2 3 3 2 2 2 3 3 3 2 2
3 4 5 6 7 7 5 4 4 6 8 10 10 7 5 3 2 1 1 1 1 2 2 2 2 2 2 2 2 2 2 2 2 2 2 2 1 1
4 5 6 7 8 7 5 4 5 7 10 11 9 5 2 1 1 1 1 1 1 1 1 1 2 2 2 1 1 1 1 1 1 1 1 1 1 0

GEFSNE_con_maxscp_324.txt.gz
SCP
2 2 2 2 2 2 2 2 2 1 1 1 0 0 0 1 1 1 1 1 1 1 1 1 1 0 1 1 1 1 1 1 1 1 1 1 1 1
2 2 2 1 1 2 2 2 2 2 1 1 1 1 1 1 1 1 1 1 1 1 1 1 0 0 0 0 1 1 1 1 1 1 1 1 1 1
2 2 2 2 2 2 2 2 2 2 2 2 2 1 1 1 1 1 1 1 1 1 1 1 1 0 0 0 0 0 0 0 0 0 1 1 1 1
3 3 2 2 2 2 2 2 2 2 3 3 2 2 2 1 1 1 1 1 1 1 1 1 1 1 0 0 0 0 0 0 0 0 0 0 1 1
4 3 3 3 3 3 3 2 2 2 2 3 3 3 3 2 2 1 1 1 1 1 1 1 1 1 0 0 0 0 0 0 0 0 0 0 0 0
4 4 4 4 4 3 3 3 3 2 2 2 2 2 3 3 3 2 2 2 2 2 2 2 2 1 1 1 0 0 0 0 0 0 0 0 0 0
4 4 4 4 4 4 4 4 3 3 3 2 2 2 2 3 3 3 3 2 2 2 2 2 2 2 2 1 1 1 0 0 0 0 0 0 0 0
2 3 3 3 4 4 4 4 3 3 3 3 3 2 2 3 3 4 4 3 2 2 2 2 2 2 2 2 1 1 1 0 0 0 0 0 0 0
2 2 2 2 3 3 4 3 3 3 4 4 4 4 3 3 3 3 3 3 2 2 3 3 3 2 2 2 2 2 1 0 0 0 0 0 0 0
2 2 2 2 2 3 4 4 3 3 4 5 5 5 4 3 3 3 3 2 2 2 3 4 4 3 2 2 2 1 1 0 0 0 0 0 0 0
1 2 2 2 2 2 3 4 4 4 4 4 5 5 5 4 3 3 3 2 2 3 4 5 5 4 2 2 1 1 1 0 0 0 0 0 0 0
1 1 2 2 1 1 2 3 4 5 5 6 5 5 5 4 4 4 3 3 3 3 4 5 5 4 2 1 1 1 0 0 0 0 0 0 0 0
1 1 1 1 1 0 1 2 3 5 7 8 8 7 6 6 5 4 4 4 4 4 5 5 4 3 2 1 1 0 0 0 0 0 0 0 0 0
1 1 1 1 0 0 0 1 2 5 8 10 11 10 9 8 7 6 5 4 4 5 5 5 4 3 2 1 1 0 0 0 0 0 0 0 0 0
1 1 1 0 0 0 0 1 2 5 9 11 12 11 10 9 8 7 6 5 5 4 4 5 4 3 2 2 1 0 0 0 0 0 0 0 0 0
0 0 0 0 0 0 0 1 2 4 7 9 11 10 10 9 8 7 6 6 5 4 4 4 3 3 2 2 1 1 0 0 0 1 1 1 1 1
0 0 0 0 0 0 0 0 1 2 4 5 7 8 9 8 7 6 6 5 5 4 3 3 2 2 1 1 1 1 1 1 1 1 1 1 1 1
0 0 0 0 0 0 0 0 1 1 2 3 4 6 7 7 6 6 5 4 4 4 3 2 2 1 1 1 1 1 1 1 1 0 0 1 1 1
0 0 0 0 0 0 0 0 0 1 1 2 2 4 5 5 5 5 4 4 3 3 2 2 2 2 1 1 1 1 0 0 0 0 0 0 0 0
0 0 0 0 0 0 0 0 0 0 1 1 2 2 3 3 4 3 3 3 2 2 1 1 1 1 1 1 1 1 0 0 0 0 0 0 0 0
0 0 0 0 0 0 0 0 1 1 1 1 1 2 2 3 3 2 2 1 1 1 1 1 1 0 0 0 0 0 0 0 0 0 0 0 0 0
0 0 0 0 0 1 1 1 1 1 1 1 1 2 2 2 2 1 1 0 0 0 0 0 0 0 0 0 0 0 0 0 0 0 0 0 0 0
0 0 0 0 1 1 2 2 2 1 1 1 1 1 2 2 2 1 0 0 0 0 0 0 0 0 0 0 0 0 0 0 0 0 0 0 0 0

GEFSNE_con_maxscp_330.txt.gz
SCP
1 1 1 1 2 2 2 2 2 1 1 1 1 1 1 1 1 1 1 1 1 1 1 1 1 1 1 1 1 1 1 1 1 1 2 2 2 2
1 1 1 1 2 2 2 2 2 2 1 1 1 1 1 1 1 1 1 1 1 1 0 0 1 1 1 1 1 0 0 1 1 1 1 1 1 1
2 2 2 2 2 3 3 3 3 2 2 2 2 1 1 1 1 1 1 1 1 1 1 0 1 1 0 0 0 0 0 0 0 0 1 1 1 1
2 2 2 3 3 3 3 3 3 3 3 2 2 2 2 2 1 1 1 1 1 1 1 1 0 0 0 0 0 0 0 0 0 0 0 0 1 1
3 3 3 3 3 3 3 4 4 4 3 3 3 2 2 2 2 1 1 1 1 1 1 1 0 0 0 0 0 0 0 0 0 0 0 0 0 0
3 3 3 3 3 3 3 3 4 4 4 4 3 3 2 2 2 1 1 1 1 1 1 1 1 1 1 1 0 0 0 0 0 0 0 0 0 0
3 3 2 2 2 2 2 2 3 4 4 4 4 4 3 2 2 2 2 1 2 2 2 2 1 1 1 1 1 1 0 0 0 0 0 0 0 0
2 2 2 2 1 1 1 1 2 2 3 4 5 5 4 4 3 2 2 2 2 2 2 2 2 1 1 1 1 1 0 0 0 0 0 0 0 0
2 2 2 2 2 2 2 1 1 1 2 3 4 5 5 5 4 3 2 2 2 2 2 2 2 1 1 1 1 1 1 0 0 0 0 0 0 0
1 1 1 1 1 1 1 1 1 1 1 2 3 4 4 5 4 3 2 2 2 2 2 2 1 1 1 1 2 1 1 0 0 0 0 0 0 0
1 1 1 1 0 0 1 1 1 1 1 1 2 3 3 3 3 2 2 2 2 2 2 2 2 1 2 2 2 2 1 0 0 0 0 0 0 0
1 1 0 0 0 0 0 1 1 1 1 1 1 2 2 2 2 2 2 3 2 2 2 2 2 2 2 3 2 2 1 1 0 0 0 0 0 0
1 1 1 0 0 0 0 0 1 1 1 1 1 1 2 2 2 2 3 3 3 3 3 3 3 3 3 3 2 1 1 1 1 0 0 0 0 0
1 1 1 0 0 0 0 0 0 0 1 1 1 1 2 2 3 4 4 4 4 4 4 4 4 4 4 3 2 1 1 1 1 0 0 0 0 0
1 1 0 0 0 0 0 0 0 0 0 0 1 1 1 2 4 5 5 5 5 5 4 4 4 4 4 3 3 2 1 1 1 1 1 1 1 1
0 0 0 0 0 0 0 0 0 0 0 0 0 1 1 2 3 5 6 6 6 5 5 4 4 4 4 4 3 2 2 1 1 1 1 1 1 1
0 0 0 0 0 0 0 0 0 0 0 0 1 1 1 2 3 4 6 6 6 6 5 5 4 3 3 3 3 2 2 2 1 1 1 1 1 1
0 0 0 0 0 0 0 0 0 0 0 0 1 1 1 1 2 3 4 5 5 6 6 5 4 3 2 3 2 2 2 2 2 1 1 1 1 1
0 0 0 0 0 0 0 0 0 0 0 0 0 1 1 1 1 2 3 3 3 5 6 6 5 3 3 3 3 2 2 2 2 1 1 1 1 1
0 0 1 1 1 0 0 0 0 0 0 0 0 0 1 1 1 1 2 2 2 3 4 5 5 4 4 4 4 2 1 1 1 1 1 0 1 1
0 0 1 1 1 1 0 0 0 0 0 0 0 0 0 1 1 1 1 1 1 2 2 4 4 4 4 5 4 2 1 1 1 1 0 0 0 0
0 0 1 1 1 1 0 0 0 0 0 0 0 0 0 0 1 1 1 1 1 1 2 2 3 3 3 3 3 2 1 1 0 0 0 0 0 0
0 0 1 1 1 1 0 0 0 0 0 0 0 0 0 0 0 1 1 1 1 1 1 2 2 3 2 2 2 1 1 1 0 0 0 0 0 0

GEFSNE_con_maxscp_336.txt.gz
SCP
11 9 6 4 3 3 3 4 3 3 2 2 2 2 2 2 2 2 2 2 1 1 0 0 0 0 1 1 1 1 1 1 1 1 1 1 1 1
9 7 5 4 3 3 3 3 3 3 2 2 2 2 3 3 2 2 2 2 1 1 0 0 0 0 0 1 1 1 1 1 1 1 1 1 1 1
6 5 5 5 4 4 4 3 3 3 2 2 2 2 3 3 2 2 2 2 2 1 1 0 0 0 0 1 1 1 1 1 0 0 1 1 1 1
4 5 5 5 5 5 5 4 4 3 2 2 2 2 3 3 3 2 2 2 2 2 1 1 0 0 0 0 0 0 0 0 0 0 0 1 1 1
4 4 5 5 6 6 6 5 5 4 3 2 2 2 3 3 3 2 2 2 2 2 1 1 1 0 0 0 0 0 0 0 0 0 0 0 0 0
4 4 4 5 5 5 5 5 5 5 4 3 2 3 3 4 3 3 2 2 2 2 2 1 1 1 1 1 0 0 0 0 0 0 0 0 0 0
5 5 5 5 4 4 4 4 4 4 4 3 2 3 4 4 4 3 3 3 3 3 2 2 2 2 1 1 1 0 0 0 0 0 0 0 0 0
5 5 5 4 3 3 2 2 3 3 3 3 3 3 3 4 3 3 4 4 4 4 3 2 2 2 2 2 1 1 0 0 0 0 0 0 0 0
5 5 5 4 3 3 3 2 2 2 3 3 3 3 3 3 3 4 4 4 5 6 5 4 3 3 2 2 2 1 1 0 0 0 0 0 0 0
4 4 4 4 3 3 3 3 2 2 2 2 3 2 2 2 3 3 4 4 4 5 5 4 3 3 2 2 2 1 1 0 0 0 0 0 0 0
4 4 4 3 2 2 2 3 2 2 1 1 1 1 1 1 2 3 3 3 4 4 4 3 3 3 2 2 2 1 0 0 0 0 0 0 0 0
4 4 3 3 2 1 2 2 2 1 1 1 1 1 1 1 1 2 2 2 3 4 4 3 2 2 2 2 2 1 1 1 0 0 0 0 0 0
5 5 4 2 1 0 1 1 1 1 1 1 1 1 1 1 1 2 2 2 3 4 5 4 3 3 2 2 2 2 1 1 1 1 1 0 0 0
7 7 5 2 0 0 0 1 1 1 1 1 1 1 1 1 1 2 2 2 3 4 5 5 4 3 3 2 2 2 2 3 3 3 2 1 1 0
8 7 5 2 0 0 0 0 0 1 1 1 1 1 1 1 1 2 3 3 3 3 4 5 4 4 3 2 2 2 3 5 5 4 3 2 2 1
7 6 4 2 1 1 1 0 1 1 1 1 1 1 1 1 1 2 3 3 2 2 3 3 3 3 2 2 2 2 3 5 5 4 3 3 2 2
7 8 7 6 5 3 1 1 1 1 1 1 1 2 2 1 1 2 3 3 2 2 2 2 3 3 2 2 2 2 3 4 5 5 4 3 2 2
7 9 10 11 9 5 2 1 1 1 1 1 1 2 2 2 2 2 3 3 2 2 2 2 3 3 2 2 2 2 2 4 5 4 4 3 3 3
6 7 8 9 8 5 3 1 1 2 2 1 1 1 1 2 2 2 2 2 2 2 2 2 2 2 2 2 2 2 3 4 4 4 3 2 2 2
4 5 5 5 5 4 3 2 2 2 2 2 2 2 2 2 2 2 2 2 1 1 2 2 2 2 2 2 3 3 3 4 4 3 2 2 2 2
3 3 3 3 3 3 3 2 3 3 3 3 3 3 2 2 2 2 2 2 1 1 1 1 1 2 2 2 3 3 3 3 3 2 2 2 1 1
3 3 2 2 2 2 3 3 3 3 3 4 4 3 3 2 2 2 2 1 1 0 0 1 1 2 2 2 2 3 3 3 3 2 1 1 1 1
2 2 2 1 1 2 2 2 3 3 3 3 3 3 3 2 2 2 1 1 0 0 0 0 1 1 2 2 2 2 3 3 3 2 1 1 1 1